Location: Sungai Bunut
(2.6333°N, 113.7333°E)
Time: 12:32:40
(UTC+00:00)

Cosmos 1184 Rocket - Pass Details

Date: 16 October 2021
Orbit: 395 x 407 km, 81.2° (Epoch: 29 November)

Event Time Altitude Azimuth Distance (km) Brightness Sun altitude
Rises 21:42:52 0° 202° (SSW) 2,339 6.4 -7.2°
Reaches altitude 10° 21:45:03 10° 213° (SSW) 1,474 5.3 -6.7°
Maximum altitude 21:47:53 29° 275° (W) 782 3.6 -6.0°
Drops below altitude 10° 21:50:42 10° 338° (NNW) 1,464 5.2 -5.3°
Sets 21:52:52 0° 349° (N) 2,318 6.3 -4.8°
